Mount Sterling, KY

5:10 AM EDT on April 30, 2017 (GMT -0400)
Mount Sterling-Montgomery County

Weather History for KIOB - March, 2013

Change the Weather History Date:

Thursday, March 7, 2013

  Actual Average Record
Temperature  
Mean Temperature 32 °F -  
Max Temperature 33 °F 53 °F 60 °F (2016)
Min Temperature 32 °F 32 °F 19 °F (2015)
Degree Days  
Heating Degree Days 32    
Moisture  
Dew Point 29 °F    
Average Humidity 89    
Maximum Humidity 100    
Minimum Humidity 81    
Precipitation  
Precipitation 0.00 in - - ()
Sea Level Pressure  
Sea Level Pressure 30.33 in    
Wind  
Wind Speed 3 mph (NW)    
Max Wind Speed 6 mph    
Max Gust Speed -    
Visibility 9 miles    
Events      
Averages and records for this station are not official NWS values.
T = Trace of Precipitation, MM = Missing Value Source: NWS Daily Summary

Daily Weather History Graph

Daily Weather History Graph

Search for Another Location

Airport or City:

Trip Planner

Search our weather history database for the weather conditions in past years. The results will help you decide how hot, cold, wet, or windy it might be!

Date:

Astronomy

Mar. 07, 2013 Rise Set
Actual Time 6:58 AM EST 6:35 PM EST
Civil Twilight 6:32 AM EST 7:01 PM EST
Nautical Twilight 6:01 AM EST 7:32 PM EST
Astronomical Twilight 5:31 AM EST 8:03 PM EST
Moon 3:54 AM EST (3/7) 2:25 PM EST (3/7)
Length of Visible Light 12h 29m
Length of Day
11h 36m
Waning Crescent, 20% of the Moon is Illuminated
Mar 7
Waning Crescent
Mar 11
New
Mar 19
First Quarter
Mar 27
Full
Apr 3
Last Quarter

Hourly Weather History & Observations

Time (EST) Temp. Windchill Dew Point Humidity Pressure Visibility Wind Dir Wind Speed Gust Speed Precip Events Conditions
12:15 AM 32.0 °F 26.4 °F 30.2 °F 93% 30.25 in 10.0 mi NNW 5.8 mph - N/A   Overcast
12:35 AM 32.0 °F 27.5 °F 28.4 °F 87% 30.25 in 10.0 mi NNW 4.6 mph - N/A   Overcast
12:55 AM 32.0 °F 28.7 °F 28.4 °F 87% 30.25 in 10.0 mi NNW 3.5 mph - N/A   Overcast
1:15 AM 32.0 °F 28.7 °F 28.4 °F 87% 30.25 in 10.0 mi NW 3.5 mph - N/A   Overcast
1:35 AM 32.0 °F 27.5 °F 28.4 °F 87% 30.26 in 10.0 mi WNW 4.6 mph - N/A   Overcast
1:55 AM 32.0 °F 28.7 °F 28.4 °F 87% 30.26 in 10.0 mi NNW 3.5 mph - N/A   Overcast
2:15 AM 32.0 °F 28.7 °F 28.4 °F 87% 30.26 in 10.0 mi NW 3.5 mph - N/A   Overcast
2:35 AM 32.0 °F 28.7 °F 28.4 °F 87% 30.26 in 10.0 mi NW 3.5 mph - N/A   Overcast
2:55 AM 32.0 °F 28.7 °F 28.4 °F 87% 30.26 in 10.0 mi NW 3.5 mph - N/A   Overcast
3:15 AM 32.0 °F 27.5 °F 28.4 °F 87% 30.26 in 10.0 mi NW 4.6 mph - N/A   Overcast
3:35 AM 32.0 °F 28.7 °F 28.4 °F 87% 30.26 in 10.0 mi NNW 3.5 mph - N/A   Overcast
3:55 AM 32.0 °F 27.5 °F 28.4 °F 87% 30.27 in 10.0 mi NW 4.6 mph - N/A   Overcast
4:15 AM 32.0 °F 28.7 °F 28.4 °F 87% 30.27 in 10.0 mi WNW 3.5 mph - N/A   Overcast
4:35 AM 32.0 °F 27.5 °F 28.4 °F 87% 30.29 in 10.0 mi NW 4.6 mph - N/A   Overcast
4:55 AM 32.0 °F 28.7 °F 28.4 °F 87% 30.29 in 10.0 mi NW 3.5 mph - N/A   Overcast
5:15 AM 32.0 °F 28.7 °F 28.4 °F 87% 30.29 in 10.0 mi NNW 3.5 mph - N/A   Overcast
5:35 AM 32.0 °F 28.7 °F 28.4 °F 87% 30.30 in 10.0 mi NNW 3.5 mph - N/A   Overcast
5:55 AM 32.0 °F 27.5 °F 28.4 °F 87% 30.30 in 10.0 mi NW 4.6 mph - N/A   Overcast
6:15 AM 32.0 °F 26.4 °F 28.4 °F 87% 30.31 in 10.0 mi NNW 5.8 mph - N/A   Overcast
6:35 AM 32.0 °F 28.7 °F 28.4 °F 87% 30.32 in 10.0 mi NW 3.5 mph - N/A   Overcast
6:55 AM 32.0 °F 28.7 °F 28.4 °F 87% 30.32 in 10.0 mi NW 3.5 mph - N/A   Overcast
7:15 AM 32.0 °F 28.7 °F 28.4 °F 87% 30.33 in 10.0 mi NW 3.5 mph - N/A   Overcast
7:35 AM 32.0 °F - 28.4 °F 87% 30.33 in 10.0 mi Calm Calm - N/A   Overcast
7:55 AM 32.0 °F - 28.4 °F 87% 30.34 in 10.0 mi Calm Calm - N/A   Overcast
8:15 AM 32.0 °F - 28.4 °F 87% 30.34 in 7.0 mi Calm Calm - N/A   Overcast
8:35 AM 32.0 °F - 28.4 °F 87% 30.35 in 5.0 mi Calm Calm - N/A   Overcast
8:55 AM 32.0 °F - 28.4 °F 87% 30.35 in 5.0 mi Calm Calm - N/A   Overcast
9:15 AM 32.0 °F - 28.4 °F 87% 30.35 in 5.0 mi Calm Calm - N/A   Overcast
9:35 AM 32.0 °F 28.7 °F 30.2 °F 93% 30.36 in 5.0 mi NW 3.5 mph - N/A   Overcast
9:55 AM 32.0 °F - 30.2 °F 93% 30.36 in 5.0 mi Calm Calm - N/A   Overcast
10:15 AM 32.0 °F 28.7 °F 30.2 °F 93% 30.35 in 7.0 mi NNW 3.5 mph - N/A   Overcast
10:35 AM 32.0 °F - 30.2 °F 93% 30.36 in 7.0 mi Calm Calm - N/A   Overcast
10:55 AM 32.0 °F 27.5 °F 30.2 °F 93% 30.36 in 7.0 mi NW 4.6 mph - N/A   Overcast
11:15 AM 32.0 °F 28.7 °F 30.2 °F 93% 30.36 in 7.0 mi WNW 3.5 mph - N/A   Overcast
11:35 AM 32.0 °F 28.7 °F 30.2 °F 93% 30.36 in 10.0 mi NNW 3.5 mph - N/A   Overcast
11:55 AM 32.0 °F 28.7 °F 30.2 °F 93% 30.36 in 10.0 mi WNW 3.5 mph - N/A   Overcast
12:15 PM 32.0 °F 27.5 °F 30.2 °F 93% 30.37 in 10.0 mi NW 4.6 mph - N/A   Overcast
12:35 PM 33.8 °F 28.6 °F 30.2 °F 87% 30.36 in 10.0 mi WNW 5.8 mph - N/A   Overcast
12:55 PM 33.8 °F 29.6 °F 30.2 °F 87% 30.36 in 10.0 mi WNW 4.6 mph - N/A   Overcast
1:15 PM 33.8 °F 30.8 °F 30.2 °F 87% 30.35 in 10.0 mi West 3.5 mph - N/A   Overcast
1:35 PM 33.8 °F 29.6 °F 30.2 °F 87% 30.35 in 10.0 mi WNW 4.6 mph - N/A   Overcast
1:55 PM 33.8 °F 29.6 °F 30.2 °F 87% 30.34 in 7.0 mi WNW 4.6 mph - N/A   Overcast
2:15 PM 33.8 °F 30.8 °F 28.4 °F 81% 30.34 in 10.0 mi WNW 3.5 mph - N/A   Overcast
2:35 PM 33.8 °F 30.8 °F 30.2 °F 87% 30.34 in 10.0 mi WNW 3.5 mph - N/A   Overcast
2:55 PM 33.8 °F 30.8 °F 28.4 °F 81% 30.34 in 10.0 mi NW 3.5 mph - N/A   Overcast
3:15 PM 33.8 °F 30.8 °F 28.4 °F 81% 30.35 in 10.0 mi NNW 3.5 mph - N/A   Overcast
3:35 PM 33.8 °F - 28.4 °F 81% 30.35 in 10.0 mi Calm Calm - N/A   Overcast
3:55 PM 33.8 °F - 30.2 °F 87% 30.35 in 10.0 mi Calm Calm - N/A   Overcast
4:15 PM 33.8 °F - 28.4 °F 81% 30.35 in 10.0 mi Calm Calm - N/A   Overcast
4:35 PM 33.8 °F - 30.2 °F 87% 30.35 in 10.0 mi Calm Calm - N/A   Overcast
4:55 PM 33.8 °F - 30.2 °F 87% 30.35 in 10.0 mi Calm Calm - N/A   Overcast
5:15 PM 33.8 °F 30.8 °F 30.2 °F 87% 30.35 in 10.0 mi WNW 3.5 mph - N/A   Overcast
5:35 PM 33.8 °F - 30.2 °F 87% 30.36 in 10.0 mi Calm Calm - N/A   Overcast
5:55 PM 33.8 °F - 30.2 °F 87% 30.36 in 10.0 mi Calm Calm - N/A   Overcast
6:15 PM 33.8 °F 29.6 °F 30.2 °F 87% 30.37 in 10.0 mi NW 4.6 mph - N/A   Overcast
6:35 PM 33.8 °F - 30.2 °F 87% 30.37 in 10.0 mi Calm Calm - N/A   Overcast
6:55 PM 32.0 °F - 30.2 °F 93% 30.37 in 10.0 mi Calm Calm - N/A   Overcast
8:35 PM 32.0 °F - 32.0 °F 100% 30.38 in 10.0 mi Calm Calm - N/A   Overcast
8:55 PM 32.0 °F - 30.2 °F 93% 30.38 in 10.0 mi Calm Calm - N/A   Overcast
9:15 PM 32.0 °F 28.7 °F 30.2 °F 93% 30.38 in 10.0 mi NW 3.5 mph - N/A   Overcast
9:35 PM 32.0 °F - 30.2 °F 93% 30.38 in 10.0 mi Calm Calm - N/A   Overcast
9:55 PM 32.0 °F - 30.2 °F 93% 30.38 in 10.0 mi Calm Calm - N/A   Overcast
10:15 PM 32.0 °F - 30.2 °F 93% 30.38 in 10.0 mi Calm Calm - N/A   Overcast
10:35 PM 32.0 °F - 30.2 °F 93% 30.38 in 10.0 mi Calm Calm - N/A   Overcast
10:55 PM 32.0 °F - 32.0 °F 100% 30.38 in 7.0 mi Calm Calm - N/A   Overcast
11:15 PM 32.0 °F - 32.0 °F 100% 30.38 in 7.0 mi Calm Calm - N/A   Overcast
11:35 PM 32.0 °F - 30.2 °F 93% 30.38 in 10.0 mi Calm Calm - N/A   Overcast
11:55 PM 32.0 °F - 30.2 °F 93% 30.37 in 7.0 mi Calm Calm - N/A   Overcast